Regional Weather Roundup
Issued by NWS Upton, NY

Current Version | Previous Version | Text Only | Print | Product List | Glossary Off
Versions: 1 2 3 4 5 6 7 8 9 10 11 12 13 14 15 16 17 18 19 20 21 22 23 24 25 26 27 28 29 30 31 32 33 34 35 36 37 38 39 40 41 42 43 44 45 46 47 48 49 50
000 ASUS41 KOKX 201008 RWROKX REGIONAL WEATHER ROUNDUP NATIONAL WEATHER SERVICE NEW YORK NY 500 AM EST FRI JAN 20 2017 NOTE: "FAIR" INDICATES FEW OR NO CLOUDS BELOW 12,000 FEET WITH NO SIGNIFICANT WEATHER AND/OR OBSTRUCTIONS TO VISIBILITY. NYZ071-072-176-178-NJZ106-104-201100- NEW YORK CITY METRO AREA CITY SKY/WX TMP DP RH WIND PRES REMARKS Central Park CLOUDY 40 31 70 NE5 30.03F Wall St Helipt CLOUDY 41 32 70 NE8 30.03S Bronx Bot Gard NOT AVBL LaGuardia APRT CLOUDY 41 31 67 NE6 30.01F Kennedy INTL CLOUDY 42 27 55 NE6 30.03S Breezy Point N/A 39 N/A N/A E3 N/A Newark/Liberty CLOUDY 42 32 67 NE3 30.02S Teterboro CLOUDY 41 31 67 NE3 30.01F $$ NYZ177-179-078>081-201100- LONG ISLAND NEW YORK CITY SKY/WX TMP DP RH WIND PRES REMARKS Jones Beach N/A 39 N/A N/A NE7 N/A WCI 34 Matinecock PT NOT AVBL Farmingdale CLOUDY 40 31 70 NE6 30.02F MacArthur/ISP CLOUDY 40 32 73 NW3 30.01F Shirley CLOUDY 39 33 79 NW5 30.02F Westhampton CLOUDY 38 32 79 CALM 30.02F Southampton NOT AVBL Bridgehampton NOT AVBL East Hampton CLOUDY 37 34 87 CALM 30.00F Montauk N/A 42 32 67 N3 30.01F $$ NYZ052-065-067-201100- HUDSON VALLEY CITY SKY/WX TMP DP RH WIND PRES REMARKS White Plains CLOUDY 38 29 70 N3 30.00F Newburgh CLOUDY 37 30 75 CALM 30.01F Montgomery CLOUDY 37 32 82 CALM 29.99F Poughkeepsie CLOUDY 36 30 79 CALM 30.01F Albany CLOUDY 34 31 88 CALM 30.01F $$ NJZ001-105-106-008-010-013-015-019>022-104-201100- NEW JERSEY CITY SKY/WX TMP DP RH WIND PRES REMARKS Newark/Liberty CLOUDY 42 32 67 NE3 30.02S Teterboro CLOUDY 41 31 67 NE3 30.01F Caldwell CLOUDY 39 32 76 E3 30.02F Somerville CLOUDY 32 30 92 CALM 29.99F Linden CLOUDY 40 33 74 CALM 30.02S Sussex CLOUDY 34 33 96 CALM 29.99F Andover N/A 33 32 96 CALM 29.99F Trenton PTCLDY 29 28 96 N3 30.00F Millville CLOUDY 29 28 96 CALM 30.00F Atlantic City CLOUDY 30 26 85 CALM 30.01F Wrightstown CLEAR 27 26 94 CALM 29.98F Toms River CLOUDY 25 24 96 CALM 30.02F Belmar CLOUDY 34 32 92 CALM 30.02F $$ PAZ047>061-062-071-201100- EASTERN PENNSYLVANIA CITY SKY/WX TMP DP RH WIND PRES REMARKS Philadelphia MOCLDY 33 32 96 CALM 30.01F Allentown CLOUDY 30 27 88 CALM 29.99F FOG Scranton CLOUDY 36 32 85 SE3 29.95F $$ CTZ002-004>006-009-010-012-RIZ004-006-007-MAZ004-011-015-201100- SOUTHERN NEW ENGLAND IN CT CITY SKY/WX TMP DP RH WIND PRES REMARKS Bradley INTL CLOUDY 36 31 82 CALM 30.02S Hartford CLOUDY 36 32 85 CALM 30.02F Danbury CLOUDY 37 28 70 CALM 30.01F Wtrbury/Oxford CLOUDY 36 28 75 CALM 30.01S Bridgeport CLOUDY 41 31 67 CALM 30.01F Meriden CLOUDY 36 31 82 CALM 30.02S New Haven CLOUDY 39 32 76 CALM 30.01F Chester CLOUDY 37 32 81 CALM 30.00F Groton CLOUDY 36 32 85 NE3 30.01F Wilimantic CLOUDY 33 31 92 E3 30.02F IN RI CITY SKY/WX TMP DP RH WIND PRES REMARKS Providence CLEAR 32 26 78 CALM 30.02F Block Island NOT AVBL Westerly CLOUDY 38 31 76 CALM 30.02F IN MA CITY SKY/WX TMP DP RH WIND PRES REMARKS Boston CLOUDY 36 30 79 NW7 30.02S WCI 30 Worcester CLOUDY 30 26 85 NW3 29.98S Westfield CLOUDY 33 32 96 CALM 30.01S Provincetown CLOUDY 41 31 67 N8 30.02R Nantucket CLOUDY 39 33 79 NW7 30.00R WCI 34 $$ ANZ330-335-338-340-345-350-353-355-201100- COASTAL MARINE OBSERVATIONS STATION/POSITION TIME SKY/WX TEMP WIND PRES VSBY WAVE AIR SEA DIR/SP/G HT/PER (UTC) (F) (DEG/KT/KT) (MB) (MI) (FT/S) NY HARB ENTRANCE 0850 42 44 60/ 10/ 12 1016.3 4/11 20 S FIRE ISLAND 0950 42 45 30/ 10/ 12 1016.1 6/13 GREAT SOUTH BAY NOT AVBL 23 SSW MONTAUK P 0850 44 48 40/ 4/ 6 1016.7 5/10 15 E BARNEGAT LI 0930 47 N/A 5/11 HUDSON CANYON 0850 48 51 1015.7 6/10 KINGS POINT 0942 39 39 1016.3 EXECUTION ROCKS 0945 40 40/ 4/ 6 N/A CENTRAL LI SOUND 0930 41 340/ 4/ 6 N/A 0 EASTERN LI SOUND NOT AVBL ROBBINS REEF 0942 40 60/ 6/ 7 1016.7 $$ >>>>>>>>>>>>>>>>>>>>>>>>>>>> KEY <<<<<<<<<<<<<<<<<<<<<<<<<<< > < > SKY/WX - Sky Condition/Present Weather < > TMP - Temperature in Fahrenheit < > DP - Dew Point in Fahrenheit < > RH - Relative Humidity in Percent < > WIND - Direction (from) and Speed in MPH < > PRES - Mean Sea Level Pressure (inches of Hg) < > WCI - Wind Chill Index < > VSB - VISIBILITY IN MILES < > HX - HEAT INDEX < > TC - TEMPERATURE IN CELSIUS < > VRB - VARIABLE WIND DIRECTION < > < >>>>>>>>>>>>>>>>>>>>>>>>>>>> KEY <<<<<<<<<<<<<<<<<<<<<<<<<<<

USA.gov is the U.S. government's official web portal to all federal, state and local government web resources and services.